Copper Harbor, MI

9:38 PM EST on February 22, 2017 (GMT -0500)
Copper Harbor

Weather History for KP59 - August, 2013

Change the Weather History Date:

Sunday, August 11, 2013

  Actual Average Record
Temperature  
Mean Temperature 64 °F -  
Max Temperature 72 °F 68 °F 81 °F (2011)
Min Temperature 59 °F 52 °F 43 °F (1997)
Degree Days  
Heating Degree Days 1    
Growing Degree Days 14 (Base 50)    
Moisture  
Dew Point 54 °F    
Average Humidity 71    
Maximum Humidity 84    
Minimum Humidity 56    
Precipitation  
Precipitation 0.00 in - - ()
Sea Level Pressure  
Sea Level Pressure 30.01 in    
Wind  
Wind Speed 6 mph (NW)    
Max Wind Speed 16 mph    
Max Gust Speed -    
Averages and records for this station are not official NWS values.
T = Trace of Precipitation, MM = Missing Value Source: NWS Daily Summary

Daily Weather History Graph

Daily Weather History Graph

Search for Another Location

Airport or City:

Trip Planner

Search our weather history database for the weather conditions in past years. The results will help you decide how hot, cold, wet, or windy it might be!

Date:

Astronomy

Aug. 11, 2013 Rise Set
Actual Time 6:42 AM EDT 9:09 PM EDT
Civil Twilight 6:08 AM EDT 9:43 PM EDT
Nautical Twilight 5:25 AM EDT 10:26 PM EDT
Astronomical Twilight 4:35 AM EDT 11:15 PM EDT
Moon 11:55 AM EDT (8/11) 10:58 PM EDT (8/11)
Length of Visible Light 15h 35m
Length of Day
14h 26m
Waxing Crescent, 22% of the Moon is Illuminated
Aug 11
Waxing Crescent
Aug 14
First Quarter
Aug 20
Full
Aug 28
Last Quarter
Sep 5
New

Hourly Weather History & Observations

Time (EDT) Temp. Dew Point Humidity Pressure Visibility Wind Dir Wind Speed Gust Speed Precip Events Conditions
12:51 AM 61.0 °F 46.0 °F 58% 30.03 in - WNW 6.9 mph - N/A   Unknown
1:51 AM 62.1 °F 46.0 °F 56% 30.02 in - WNW 6.9 mph - N/A   Unknown
2:51 AM 62.1 °F 46.9 °F 58% 30.03 in - WNW 6.9 mph - N/A   Unknown
3:51 AM 62.1 °F 48.0 °F 60% 30.02 in - WNW 6.9 mph - N/A   Unknown
4:51 AM 62.1 °F 48.0 °F 60% 30.02 in - Variable 4.6 mph - N/A   Unknown
5:51 AM 63.0 °F 50.0 °F 63% 30.03 in - WNW 5.8 mph - N/A   Unknown
6:51 AM 59.0 °F 51.1 °F 75% 30.02 in - Calm Calm - N/A   Unknown
7:51 AM 61.0 °F 52.0 °F 72% 30.03 in - WNW 3.5 mph - N/A   Unknown
8:51 AM 63.0 °F 52.0 °F 67% 30.03 in - Variable 4.6 mph - N/A   Unknown
9:51 AM 64.0 °F 52.0 °F 65% 30.03 in - WNW 4.6 mph - N/A   Unknown
10:51 AM 64.0 °F 57.0 °F 78% 30.03 in - NNW 3.5 mph - N/A   Unknown
11:51 AM 64.0 °F 57.9 °F 80% 30.03 in - North 11.5 mph - N/A   Unknown
12:51 PM 68.0 °F 57.0 °F 68% 30.01 in - North 9.2 mph - N/A   Unknown
1:51 PM 64.9 °F 57.9 °F 78% 30.01 in - North 16.1 mph - N/A   Unknown
2:51 PM 68.0 °F 60.1 °F 76% 30.01 in - North 9.2 mph - N/A   Unknown
3:51 PM 66.9 °F 59.0 °F 76% 29.99 in - North 12.7 mph - N/A   Unknown
4:51 PM 69.1 °F 61.0 °F 75% 29.99 in - North 10.4 mph - N/A   Unknown
5:51 PM 69.1 °F 60.1 °F 73% 29.99 in - North 10.4 mph - N/A   Unknown
6:51 PM 66.9 °F 60.1 °F 79% 29.98 in - North 8.1 mph - N/A   Unknown
7:51 PM 64.0 °F 59.0 °F 84% 29.98 in - North 8.1 mph - N/A   Unknown
8:51 PM 63.0 °F 57.9 °F 84% 29.98 in - Calm Calm - N/A   Unknown
9:51 PM 63.0 °F 57.0 °F 81% 29.98 in - Calm Calm - N/A   Unknown
10:51 PM 62.1 °F 55.0 °F 78% 29.97 in - Calm Calm - N/A   Unknown
11:51 PM 64.9 °F 51.1 °F 61% 29.96 in - West 4.6 mph - N/A   Unknown